Wind_Speed
33 33 33 33 33 33 32 31 31 30 29 28 27 26 25 24 24 23 22 21 20 19 18 17 16 15 14 12 11 10 10 9 8 7 6 6 5 5 4 4 5 6 7 7 8 8 9 9 9 10 10 11 11 11 12 12 12 13 13 13 12 12 13 13 14 13 14 15 14 14 13 12 13 13 13 13 13 12 13 14 16 18 16 14 13 12 12 11
34 34 34 34 35 34 34 33 33 32 31 30 29 28 27 26 25 24 23 22 21 20 19 18 17 16 15 14 12 12 11 10 10 8 7 7 7 6 6 6 6 7 8 9 10 10 11 11 12 12 12 13 13 13 13 13 14 14 14 13 14 13 13 14 14 14 15 16 15 15 14 12 13 15 15 15 16 15 14 14 17 19 17 15 14 14 13 13
34 34 35 36 36 36 35 35 35 34 33 32 31 29 28 27 26 25 24 23 22 21 20 19 18 17 17 15 14 14 12 11 11 10 9 9 8 8 7 7 7 8 9 10 11 12 13 13 14 14 14 15 14 15 15 15 15 15 14 15 15 15 15 16 16 15 15 16 16 16 14 13 14 15 16 17 18 18 16 16 17 19 18 16 15 15 15 15
35 35 36 37 37 37 37 37 37 36 35 34 33 31 30 29 28 27 26 25 24 22 21 21 20 19 18 17 16 15 14 13 13 12 11 11 10 10 9 9 9 10 10 11 12 13 14 15 15 15 16 16 16 16 16 16 16 16 16 16 16 16 16 17 17 16 16 16 16 16 15 15 16 16 17 19 21 20 19 18 17 18 18 17 15 15 16 16
35 35 36 37 37 38 38 38 38 38 37 36 35 34 32 31 30 29 28 27 25 24 23 22 21 20 19 18 18 17 16 15 15 14 13 13 12 12 12 12 11 11 12 12 13 14 15 16 16 16 17 17 16 17 18 17 17 17 16 17 17 16 18 19 19 18 17 16 16 17 16 17 18 18 19 20 22 23 22 19 18 18 17 16 16 16 16 17
35 36 36 37 37 38 38 38 39 39 38 38 37 35 34 33 32 31 29 28 27 26 24 23 22 21 20 20 19 18 18 17 16 16 15 15 14 14 14 14 14 13 14 14 15 15 16 16 16 17 18 17 17 18 19 18 18 17 17 19 19 17 18 20 20 19 18 18 18 18 18 19 19 20 20 21 23 25 24 22 19 18 17 17 16 17 17 18
35 36 36 37 37 37 38 39 39 39 39 38 37 36 35 34 33 32 31 29 28 27 26 24 23 23 22 21 20 20 19 18 18 18 17 17 16 16 16 16 16 16 16 16 16 16 17 16 17 18 18 17 17 19 19 19 19 18 18 20 21 19 19 21 21 21 20 19 19 20 20 21 21 21 22 23 25 26 25 23 21 18 17 17 17 17 18 18
36 36 36 37 37 37 38 38 39 39 39 38 38 37 36 35 34 33 32 31 30 28 27 26 25 24 23 22 22 22 21 20 20 20 19 19 19 18 18 18 18 17 17 17 17 17 17 17 18 18 18 17 18 19 19 20 20 19 19 21 23 22 21 22 22 22 21 21 22 22 23 23 23 23 23 24 26 26 26 23 21 19 18 18 18 18 18 19
37 37 37 37 37 37 38 38 38 39 39 39 38 37 37 36 35 34 33 32 31 30 28 27 26 26 25 24 23 23 23 22 22 22 21 21 21 20 20 20 20 19 19 19 19 18 18 18 18 18 18 18 18 19 20 21 21 21 22 23 24 25 23 23 23 23 23 23 24 24 25 25 25 25 24 26 27 26 25 23 21 20 19 19 19 19 20 20
38 38 38 38 38 38 38 38 38 38 39 39 39 38 38 37 36 35 34 33 32 31 30 29 28 27 26 25 25 25 24 24 24 24 23 23 22 22 22 22 21 21 21 20 20 19 19 19 19 19 19 19 20 20 21 23 23 24 25 25 26 26 26 24 24 25 24 24 26 27 27 27 27 26 25 27 27 25 24 23 21 21 20 20 20 21 21 22
40 39 39 39 39 39 39 39 39 39 39 39 39 39 38 38 37 36 35 35 34 32 32 31 30 29 28 27 27 27 26 26 26 26 25 25 24 24 24 24 23 23 22 22 22 21 21 21 21 21 21 21 22 23 24 25 26 26 27 27 27 27 27 25 25 26 26 26 28 29 29 28 27 27 26 26 26 24 23 22 21 22 21 21 22 22 23 24
41 41 41 41 40 40 40 40 40 40 40 40 40 39 39 38 38 37 37 36 35 34 33 32 31 31 30 29 29 28 28 28 28 28 27 26 26 26 26 26 25 24 24 24 23 23 23 23 23 24 25 25 25 26 27 28 28 28 29 28 28 28 27 26 27 28 29 29 29 31 30 28 27 27 25 25 23 22 22 22 22 22 23 23 23 24 25 25
43 43 43 42 42 42 41 41 41 41 41 40 40 40 40 40 39 39 38 37 37 36 35 34 33 32 32 31 31 30 30 30 30 30 29 28 28 28 28 27 27 26 26 25 25 25 25 25 26 27 28 28 28 29 29 29 29 30 30 29 28 29 28 28 29 29 31 31 30 31 30 27 26 25 24 24 22 22 22 22 23 23 24 24 25 25 26 26
46 45 44 44 43 43 43 42 42 42 42 42 41 41 41 41 40 40 39 39 38 38 37 36 35 34 34 33 32 32 31 31 32 32 31 30 30 30 29 29 28 28 27 27 27 27 28 28 29 29 30 30 30 30 30 29 29 30 30 30 29 30 29 29 30 30 30 30 29 31 30 26 24 24 24 23 22 21 22 22 23 25 25 26 26 27 27 27
47 47 46 46 45 44 44 44 44 43 43 43 43 42 42 42 41 41 41 40 40 39 38 38 37 36 35 35 34 33 33 33 33 33 33 32 32 31 30 30 30 29 29 29 29 29 29 30 31 31 31 30 30 30 29 28 27 28 30 31 31 31 31 29 28 28 28 28 28 29 29 25 24 25 24 23 22 22 22 23 25 26 27 27 27 27 27 27
49 49 48 47 46 46 45 45 44 44 44 44 44 44 43 43 43 42 42 41 41 40 40 39 39 38 37 36 35 35 35 35 35 35 35 34 33 32 31 31 31 31 31 31 31 31 31 31 32 32 30 29 29 29 28 27 26 28 31 32 32 31 31 30 28 28 28 28 28 29 29 27 26 27 25 24 24 24 24 25 26 27 28 28 28 28 27 27
50 50 49 49 48 47 47 47 46 45 45 45 45 45 45 44 44 43 43 43 42 41 41 41 40 40 39 38 37 36 37 37 37 37 36 35 34 34 33 33 33 32 32 32 32 32 32 32 32 31 30 28 28 28 28 27 27 30 32 32 31 30 30 31 30 30 30 30 30 30 30 29 30 30 28 27 26 27 27 26 27 28 28 29 29 28 27 28
51 51 51 50 49 49 49 48 47 47 47 47 47 46 46 46 45 45 44 44 44 43 43 42 41 42 41 40 39 38 38 38 38 38 37 37 36 36 35 35 35 34 34 33 33 33 33 33 32 31 29 26 26 27 28 28 28 31 32 33 31 30 30 31 30 30 31 31 32 32 30 29 31 31 29 29 29 29 29 28 28 28 30 30 29 28 28 28
52 51 52 51 50 50 50 50 49 49 48 48 48 48 48 47 47 47 46 46 45 44 44 43 43 44 43 42 41 40 39 38 38 39 39 38 38 38 37 36 36 35 35 34 34 34 34 33 32 29 26 24 27 29 28 28 29 30 31 32 31 30 31 30 31 32 32 32 31 32 32 30 31 31 30 31 31 30 30 30 29 30 31 31 30 29 28 28
53 53 53 53 52 51 51 51 51 50 50 50 50 49 49 49 49 49 48 47 46 45 45 46 45 45 45 44 43 42 40 39 40 40 41 40 39 39 38 37 37 36 36 35 35 35 35 34 31 26 24 26 30 30 28 27 28 29 30 31 31 31 30 30 32 34 34 34 33 33 34 33 31 32 32 33 32 31 31 32 31 31 32 33 32 31 29 29
54 55 54 54 54 53 52 52 52 52 51 51 51 51 51 50 50 50 49 48 48 47 47 48 47 47 46 45 44 43 42 41 41 41 42 41 41 40 40 39 38 37 37 37 38 37 36 34 29 25 26 29 31 30 29 29 29 30 31 31 32 32 31 31 33 35 36 37 37 36 36 35 34 35 35 35 33 31 32 34 33 32 33 34 34 32 30 30
55 56 56 55 55 54 54 54 54 54 53 52 52 51 51 51 51 51 51 50 50 49 49 49 49 48 47 47 46 45 44 44 43 42 42 42 42 42 41 40 40 39 39 40 40 38 36 33 29 27 29 31 31 31 31 31 31 32 32 33 33 32 33 33 34 35 38 39 39 39 38 37 37 37 37 37 36 33 33 34 34 34 35 35 34 33 32 32
56 56 57 57 56 55 55 55 55 56 55 54 53 52 53 53 53 53 53 53 52 51 50 50 50 50 49 49 49 47 46 46 45 44 43 43 43 44 44 43 42 41 42 42 40 38 36 33 31 31 32 32 32 32 33 34 34 34 34 35 34 33 34 35 35 36 39 41 41 41 40 39 38 38 37 38 37 35 35 35 36 35 35 35 34 33 33 33
57 57 57 58 58 58 56 56 56 56 55 55 54 54 55 55 55 55 55 56 56 53 52 52 52 52 52 51 51 50 49 49 48 47 46 45 45 46 46 45 44 44 43 41 40 39 37 34 33 34 34 33 33 34 35 36 35 36 37 37 37 36 37 37 38 39 41 42 43 43 43 40 38 38 37 36 36 35 35 36 37 37 36 36 34 33 33 33
58 58 58 58 59 59 59 59 58 56 56 55 54 54 55 55 56 56 56 58 60 57 55 55 55 55 55 55 55 53 53 53 51 51 49 48 48 48 48 46 46 44 42 40 40 40 39 36 36 37 36 35 36 36 37 37 36 37 38 38 39 39 40 41 42 43 44 44 43 44 45 41 38 38 36 33 34 35 36 36 36 37 37 36 34 33 32 32
59 58 59 59 59 59 60 61 58 58 57 55 55 55 56 56 56 57 56 58 62 60 57 56 56 56 55 56 55 54 54 53 52 52 51 50 49 48 48 47 45 43 41 40 41 42 40 38 37 37 37 38 38 37 37 37 38 38 38 38 40 41 43 44 45 46 47 46 45 45 46 44 40 38 35 33 35 36 36 36 35 35 36 35 34 33 32 31
61 60 60 60 60 61 61 60 58 58 57 55 55 55 56 56 56 57 56 59 63 61 58 57 56 56 55 54 53 53 53 50 49 49 49 49 47 46 46 46 44 43 42 42 43 43 41 38 37 38 39 40 40 38 36 37 38 39 39 40 42 43 45 46 47 48 47 47 46 46 47 46 41 36 34 34 36 36 35 34 33 33 35 34 33 33 31 31
64 63 62 61 61 62 61 60 59 59 58 57 57 56 56 56 57 57 56 59 62 60 58 57 56 55 54 54 53 53 52 49 48 48 46 46 45 44 44 44 44 44 43 44 44 42 40 39 39 39 39 40 39 38 37 37 38 40 41 43 43 44 45 46 47 46 46 46 45 46 46 46 41 36 35 34 32 31 30 30 31 32 33 33 32 31 30 29
67 66 65 64 64 63 63 63 61 60 61 61 60 59 58 58 58 58 58 60 62 59 58 57 55 53 53 52 52 52 51 50 49 48 46 46 45 43 43 42 42 43 43 43 42 40 41 41 40 40 39 39 39 40 39 38 40 42 43 43 43 44 44 45 46 45 46 45 44 44 44 44 41 36 35 34 28 27 28 29 29 29 30 30 29 28 28 27
70 69 68 67 67 66 65 64 62 61 62 62 62 61 61 61 60 60 62 62 59 58 59 58 55 52 51 51 51 51 50 50 49 48 47 47 46 45 44 43 43 44 43 42 41 41 42 42 42 42 41 40 41 42 42 41 41 42 43 43 44 45 45 45 46 45 47 45 42 42 41 43 42 36 33 32 27 25 26 27 28 28 28 28 27 26 26 26
68 68 70 70 69 68 68 66 63 62 63 64 64 63 63 63 62 64 64 60 57 59 60 59 56 54 53 52 52 52 51 51 50 49 49 48 47 46 45 45 44 45 45 45 44 43 43 43 44 45 44 44 44 44 43 42 43 42 43 44 45 46 46 46 46 46 48 45 41 40 40 41 43 36 32 31 26 23 23 25 26 26 25 25 25 24 24 24
64 65 67 68 68 70 70 69 66 64 65 65 66 67 66 66 67 68 64 59 59 62 62 61 59 57 56 55 54 54 54 53 52 51 50 49 48 47 46 46 45 46 47 47 46 45 45 45 46 47 47 46 45 44 44 44 44 44 45 46 46 47 48 49 48 47 46 43 40 39 39 41 41 35 30 27 25 23 20 21 23 22 21 21 21 21 22 22
64 65 67 68 69 70 71 72 71 69 69 68 69 69 69 71 72 69 64 62 64 65 62 62 61 59 58 57 56 55 55 55 55 53 52 51 51 51 49 49 48 48 48 47 48 48 48 49 48 48 48 47 46 46 46 46 47 48 48 46 46 48 49 49 47 44 43 41 39 39 41 43 39 31 25 24 25 24 18 17 19 18 17 17 17 19 20 20
63 64 66 67 67 67 71 74 74 72 70 70 72 72 72 74 72 66 65 65 65 65 63 63 62 60 59 57 55 54 53 54 55 54 53 53 53 53 53 52 50 49 48 48 50 51 52 52 50 48 48 48 49 49 48 48 49 50 49 47 48 48 47 45 44 43 43 42 41 41 42 42 36 29 25 23 24 23 18 16 16 16 16 16 15 16 18 19
62 63 64 64 63 63 67 73 75 74 73 72 73 75 76 75 71 67 68 67 66 65 63 62 62 61 59 58 56 54 54 53 53 53 53 52 51 52 53 52 51 50 49 49 51 51 52 52 50 49 49 49 50 50 50 50 51 51 51 50 49 45 41 42 43 44 44 44 43 43 42 38 33 29 26 22 21 21 19 17 17 17 17 17 17 17 18 19
63 63 64 63 61 61 64 70 74 75 75 76 78 79 78 74 69 68 69 67 66 64 62 62 63 62 60 59 58 57 57 56 54 53 52 51 50 50 50 51 51 50 49 49 49 49 51 52 51 51 51 50 50 51 51 51 53 54 53 50 45 41 41 43 45 45 45 46 46 44 42 37 33 30 25 21 19 19 20 20 20 19 18 18 19 20 20 21
64 64 65 62 58 60 65 68 71 74 74 77 81 82 80 75 71 70 69 67 65 64 62 64 64 63 61 60 60 59 58 57 54 51 50 49 49 48 48 50 50 50 50 48 48 49 51 53 53 53 53 53 53 53 54 54 54 54 51 46 42 43 45 45 46 46 46 47 47 45 42 38 35 30 24 22 21 20 22 23 23 21 20 19 19 20 21 22
63 64 63 60 53 55 62 66 70 74 76 79 82 82 80 78 75 73 73 71 68 66 65 65 64 64 63 63 62 60 60 59 56 53 50 49 48 47 47 49 50 50 50 49 50 52 52 54 56 56 56 56 55 55 55 54 51 48 45 43 43 45 46 45 46 46 45 46 47 45 42 39 35 30 26 25 24 23 25 25 24 24 23 22 21 21 22 23
63 66 65 60 55 53 57 63 69 73 77 81 82 78 75 74 74 76 78 76 74 73 70 67 66 66 66 64 63 61 61 61 60 58 55 52 51 49 49 50 51 51 51 51 51 52 52 54 55 55 55 54 53 53 51 46 42 41 42 43 44 45 45 44 44 44 45 46 46 45 42 38 33 30 29 29 27 26 27 27 27 27 27 26 25 23 23 24
60 66 65 63 61 56 54 60 69 75 79 82 80 73 67 66 68 70 72 73 74 74 71 68 67 67 66 64 63 62 63 64 64 63 61 56 54 53 52 52 52 52 52 51 51 51 52 52 52 52 51 51 50 47 42 39 39 41 43 45 45 43 43 43 43 44 44 45 45 45 43 38 35 33 32 31 30 29 29 29 29 30 30 29 28 27 27 27
59 61 62 63 64 59 55 59 66 70 74 79 78 73 69 69 69 70 70 70 70 70 67 67 67 66 65 65 65 64 65 66 66 66 64 59 55 53 51 51 51 50 51 51 51 50 50 50 50 50 49 49 47 43 40 41 43 44 45 46 44 41 40 41 42 42 43 43 43 45 45 40 38 38 35 34 33 32 32 32 32 32 33 33 32 31 30 31
60 63 63 62 61 59 58 61 62 64 67 70 71 71 70 71 71 71 72 72 71 69 66 66 68 67 67 66 65 64 64 65 65 65 63 58 53 50 48 48 48 49 49 50 49 47 47 48 47 47 48 48 47 47 46 46 46 46 46 44 41 39 38 38 39 39 41 43 43 47 47 42 40 40 39 38 37 37 37 36 35 35 34 35 35 35 35 34
55 58 61 62 60 57 59 62 62 64 63 60 60 63 64 65 66 65 64 65 66 65 64 65 65 65 64 62 61 60 59 60 61 61 59 55 51 49 48 48 49 49 48 50 49 46 47 48 45 44 45 46 47 47 47 48 48 47 45 42 40 40 39 38 38 39 41 42 43 48 48 44 42 43 42 41 41 41 41 40 39 38 37 38 39 40 40 39
52 53 57 62 60 58 59 62 62 62 59 56 58 60 57 57 60 60 59 60 60 60 60 60 60 59 59 59 59 58 57 57 59 59 58 57 54 52 51 51 50 49 47 47 47 46 48 49 49 48 47 47 48 48 48 48 47 46 44 44 43 42 40 39 39 40 42 42 44 48 48 44 42 44 45 45 45 44 44 43 42 41 41 41 42 43 44 45
54 55 59 59 60 61 60 60 59 56 56 58 60 59 55 54 55 55 57 58 59 59 59 59 58 57 57 57 58 58 58 59 60 61 61 60 58 56 54 53 51 49 46 46 47 48 49 50 52 53 52 51 51 50 49 47 47 47 47 47 45 43 41 41 41 41 45 46 46 47 47 43 42 45 46 47 48 48 47 46 45 45 44 44 46 47 47 49
58 60 62 58 58 61 59 57 57 55 55 59 59 56 54 52 51 53 57 58 59 59 60 60 60 59 60 60 60 61 62 61 62 62 61 61 59 56 53 52 50 48 48 49 50 51 52 51 52 54 54 52 50 49 49 49 49 49 48 46 45 44 44 44 45 47 48 49 49 47 47 45 44 45 46 48 49 51 51 50 50 49 49 49 49 50 51 53
65 63 62 57 57 60 58 57 58 57 56 58 57 55 52 49 49 53 57 58 58 58 59 61 62 62 63 63 63 64 63 62 61 60 59 59 58 56 54 52 51 50 50 50 50 51 53 53 52 53 54 52 49 49 49 49 50 49 47 46 46 46 47 48 50 50 50 51 51 48 48 48 46 46 48 49 51 52 53 53 54 54 54 53 53 54 56 57
71 67 64 60 59 60 60 59 58 57 57 59 58 56 55 53 51 53 56 57 57 56 58 60 60 60 60 60 61 62 61 61 61 60 60 59 57 57 54 52 51 51 52 52 51 50 52 52 51 52 53 51 51 52 52 51 52 51 50 50 49 51 53 54 54 53 52 55 54 50 50 50 48 48 50 51 53 55 55 55 56 56 56 56 56 57 58 58
72 70 68 67 64 60 59 61 61 59 59 60 61 60 58 56 52 51 54 57 57 55 56 58 57 56 56 57 59 60 60 60 60 59 59 58 58 58 55 51 49 50 51 52 52 53 53 54 53 53 52 51 52 53 53 54 56 56 56 55 56 58 58 58 57 55 54 56 53 51 52 52 50 51 51 51 51 52 53 53 54 55 56 56 57 58 58 57
72 69 68 69 69 65 61 64 66 65 61 60 61 61 61 60 56 53 53 55 54 52 54 56 56 54 54 53 54 54 54 55 56 56 55 55 55 56 55 54 52 51 52 54 54 55 56 55 54 54 54 54 54 54 54 56 57 58 60 60 61 62 61 59 57 53 53 53 51 51 53 52 51 52 51 50 50 50 51 53 53 54 56 57 58 58 58 58
70 69 67 69 72 71 67 66 68 69 66 63 61 60 60 59 57 55 55 55 52 49 48 49 52 53 53 53 52 48 47 50 53 54 54 53 52 52 53 54 53 52 53 54 56 57 56 55 54 53 54 55 53 52 52 53 54 56 57 57 59 59 56 54 52 51 52 52 51 52 54 51 50 50 50 51 52 52 52 53 53 55 56 57 58 59 59 60
69 69 68 69 72 73 73 71 70 71 71 69 65 62 60 58 55 55 55 54 53 50 48 46 47 50 52 53 51 46 45 47 49 50 50 51 52 53 53 53 51 50 51 53 55 57 57 55 53 51 51 51 51 52 51 51 53 55 52 52 54 53 50 51 52 51 52 51 52 53 52 48 48 49 49 50 50 50 51 52 52 53 55 57 58 59 60 61
Wind_Direction
223 221 218 215 212 209 207 206 203 201 199 198 198 198 198 199 200 200 201 201 202 203 204 204 204 205 206 208 213 219 222 223 226 227 229 235 239 244 252 259 263 265 265 265 263 262 261 260 261 261 262 264 265 268 270 272 274 275 278 283 285 283 285 289 290 292 293 292 295 297 298 296 295 296 297 299 301 304 309 314 305 299 301 301 298 294 291 287
223 220 217 214 211 209 207 206 204 202 200 200 200 200 200 201 202 203 204 204 205 206 208 208 209 210 212 214 218 223 226 229 233 236 239 242 245 250 255 261 266 268 269 268 267 265 264 263 263 264 265 266 268 270 272 274 274 276 279 282 281 282 286 288 287 290 292 292 294 294 293 292 290 291 295 298 300 304 309 307 298 297 299 297 295 294 292 289
222 220 217 213 211 209 208 206 204 203 202 201 201 202 202 203 204 206 207 207 208 210 211 212 213 215 217 220 224 228 230 232 237 240 243 246 249 253 257 261 266 269 270 270 269 268 266 265 264 265 266 267 270 272 272 274 274 275 277 278 279 282 287 287 286 289 292 292 291 291 291 287 284 289 295 298 300 303 304 299 295 295 295 292 291 292 292 291
221 219 216 213 211 210 208 207 205 204 203 203 203 204 204 205 206 208 209 210 212 213 214 215 217 219 221 224 228 232 233 234 239 242 244 248 251 254 258 263 268 271 273 273 271 269 267 266 265 265 266 267 270 271 271 272 273 274 276 276 279 283 287 289 289 290 291 291 290 290 289 284 285 289 293 297 300 301 299 298 293 289 287 286 284 285 287 288
218 217 215 213 212 211 210 208 207 205 204 204 205 205 206 207 208 210 211 213 214 216 218 219 221 223 225 228 231 234 236 236 239 242 245 250 253 256 260 265 269 273 275 276 273 270 268 266 266 266 266 267 270 271 270 270 271 272 275 276 278 283 289 290 291 293 292 291 288 287 285 284 287 290 292 297 299 299 299 296 290 284 282 280 279 280 282 283
216 215 214 213 212 211 211 210 208 207 206 206 206 207 208 209 210 211 213 215 217 219 221 222 225 227 229 231 233 236 237 237 240 243 245 249 252 256 261 265 269 273 275 276 274 272 269 268 268 267 266 268 270 270 269 270 270 271 275 278 276 281 290 292 292 294 293 292 288 285 284 284 287 290 294 297 297 297 297 294 289 284 280 276 277 278 280 280
215 214 213 212 212 211 211 210 209 209 208 208 209 209 210 212 213 214 215 217 219 221 224 226 228 230 232 235 236 238 239 239 242 244 245 248 251 255 260 264 268 272 275 276 275 274 271 270 268 267 266 267 268 269 271 271 271 272 276 279 278 281 290 293 293 294 294 292 289 286 284 285 287 290 293 297 296 295 294 291 287 283 278 275 275 277 279 279
213 213 212 212 211 211 211 210 210 210 210 211 211 212 213 214 216 217 218 220 221 223 226 228 231 233 235 237 239 241 241 241 244 246 247 249 252 256 260 264 268 272 275 276 276 276 273 270 268 268 268 267 268 271 273 272 273 275 277 281 283 285 289 293 294 293 292 290 288 287 285 286 288 289 293 295 293 292 291 289 286 283 279 275 275 277 279 279
213 212 212 211 211 211 211 211 211 211 212 213 214 215 217 218 219 220 221 222 224 226 228 231 233 235 238 240 242 243 244 244 246 248 250 252 255 258 262 265 269 272 275 276 277 276 273 270 270 270 271 271 271 271 273 275 276 278 279 282 286 288 289 291 292 290 289 288 287 285 285 286 289 290 293 292 289 288 289 288 285 282 278 276 277 279 280 280
214 214 213 212 212 212 212 212 213 213 214 215 216 218 219 221 222 223 224 225 227 229 231 233 235 238 240 242 243 246 247 247 249 250 252 254 257 260 263 266 269 273 275 277 277 276 274 272 273 273 273 274 273 273 275 277 278 280 281 283 286 288 289 289 288 288 288 287 286 285 284 287 289 290 290 288 286 286 285 284 282 280 278 278 279 280 281 282
215 215 215 215 214 214 214 214 214 215 217 218 219 221 222 223 224 226 227 228 229 231 232 235 237 239 241 243 245 247 248 250 251 252 253 255 258 260 263 267 270 272 275 276 276 276 275 274 275 275 276 276 276 277 278 278 279 281 282 284 285 286 287 287 285 285 286 285 284 284 285 288 289 289 287 285 285 285 282 280 279 279 279 279 280 282 282 281
216 216 216 216 216 216 217 217 217 217 218 220 222 223 224 225 227 228 229 230 231 233 234 236 238 239 242 244 245 247 249 251 252 253 254 255 258 260 263 266 270 273 275 276 277 277 275 275 276 278 279 278 278 279 279 279 280 282 282 283 285 284 284 284 284 284 284 282 282 283 285 287 287 286 284 283 282 281 280 278 278 278 279 280 281 281 281 280
217 217 217 217 218 218 219 219 219 220 220 222 223 225 226 227 228 229 231 232 233 234 236 237 239 240 242 244 246 247 249 251 253 254 254 255 257 260 263 266 270 273 275 276 277 277 276 277 278 280 281 281 280 280 279 280 281 282 282 282 282 281 281 282 282 282 283 284 285 285 284 284 283 283 282 281 280 278 277 277 277 278 279 280 281 280 279 278
219 219 219 219 219 220 221 221 222 222 223 224 225 226 227 228 230 231 232 234 235 236 237 239 240 241 243 245 247 248 250 251 253 255 255 256 257 260 264 267 270 273 275 276 276 276 277 279 280 282 282 282 281 279 279 280 281 282 282 281 279 278 279 280 281 283 285 286 286 283 283 283 283 281 280 279 279 277 277 278 278 279 279 280 280 279 278 277
221 221 221 221 222 222 223 224 224 225 225 226 227 228 229 230 232 233 234 235 236 237 239 240 241 243 244 246 247 250 252 253 254 256 256 257 258 261 265 268 271 273 274 275 275 276 278 280 282 283 282 281 280 279 280 280 281 282 280 278 277 278 280 281 282 283 284 284 282 281 282 283 282 279 279 280 279 277 277 279 279 279 280 280 279 279 278 278
223 223 223 223 224 225 226 226 227 228 229 229 229 230 231 232 233 234 235 236 238 239 241 242 243 245 246 247 249 251 252 254 255 256 257 258 260 263 266 269 271 272 273 274 275 276 279 282 283 282 281 279 279 280 281 281 281 278 276 277 280 282 284 284 283 281 280 279 279 281 283 284 282 279 280 280 280 280 280 280 279 280 280 279 279 278 278 279
226 226 226 226 226 227 228 228 229 231 232 232 232 232 233 234 235 237 238 239 240 241 242 244 245 247 248 248 250 251 252 254 255 257 258 260 262 265 267 269 270 271 272 273 275 278 280 281 282 280 279 278 279 280 280 280 278 277 278 280 283 285 286 286 285 283 281 280 278 278 280 283 282 281 282 282 281 280 279 279 279 280 279 277 277 277 278 278
228 228 228 228 228 229 229 230 231 232 234 234 235 235 235 236 237 238 240 241 242 243 244 245 247 248 249 249 250 251 253 254 256 258 260 261 263 265 266 267 269 270 271 273 276 278 279 280 279 278 278 279 278 277 277 278 278 279 281 282 284 285 285 285 286 285 283 281 280 279 279 279 280 282 284 284 282 281 281 282 282 280 277 276 276 276 276 277
230 230 230 230 230 230 231 232 232 233 235 236 236 237 238 238 239 240 241 242 243 245 246 246 247 248 249 250 251 252 253 255 257 259 260 261 263 265 266 267 268 269 270 272 274 276 278 278 277 277 278 277 274 274 276 278 280 282 283 283 285 285 285 287 287 284 281 280 280 281 280 278 279 282 284 283 283 284 285 285 283 282 280 279 277 276 275 276
230 231 232 232 231 232 232 233 233 234 235 236 238 239 240 240 241 241 242 243 244 246 247 247 248 249 249 250 251 252 254 255 257 259 261 262 264 265 266 266 267 268 270 272 274 275 276 277 277 275 273 272 272 274 276 278 281 283 284 286 287 287 289 290 287 285 284 283 281 280 279 278 279 280 280 280 282 284 285 283 281 280 280 280 278 277 277 276
230 232 233 233 233 233 234 234 234 235 236 237 238 240 241 242 243 243 243 244 244 245 246 247 248 249 250 251 252 253 255 255 257 259 261 263 264 264 265 266 267 268 270 271 274 275 275 275 273 269 268 269 271 274 276 278 280 282 285 287 288 289 290 290 289 290 289 287 285 283 281 281 281 280 279 280 282 283 282 281 281 280 278 278 278 277 276 276
231 232 233 234 234 235 235 236 236 236 236 237 239 240 242 243 244 244 244 244 244 245 246 247 248 249 250 252 253 253 255 256 257 258 260 262 263 264 265 266 267 269 270 272 274 273 272 271 266 262 265 268 271 275 277 278 279 281 283 285 286 288 289 289 291 291 290 288 288 287 286 285 282 281 282 283 283 283 282 282 282 280 278 276 276 276 275 274
233 233 234 234 234 235 235 236 237 238 238 238 240 241 242 243 244 245 245 245 245 245 246 247 249 250 251 252 253 254 255 256 257 258 259 261 263 264 266 267 268 269 270 272 272 270 269 265 259 259 263 267 271 274 276 278 280 282 283 285 286 286 287 289 290 290 289 289 289 289 287 285 283 282 282 283 285 286 285 283 281 280 278 276 275 274 272 271
235 235 235 235 235 235 235 236 237 238 239 240 241 242 243 244 244 245 246 246 245 245 246 248 249 250 252 253 254 255 257 257 258 259 260 261 262 264 266 267 267 268 269 269 269 267 265 261 256 257 261 265 269 272 274 277 279 282 284 286 287 288 288 289 290 290 290 288 288 289 286 283 283 283 282 284 287 288 285 281 280 281 278 275 274 272 271 269
235 236 236 237 237 237 236 236 237 238 239 240 241 242 243 244 245 245 246 247 246 245 246 248 250 252 253 255 255 256 257 258 259 260 261 261 261 263 264 265 266 267 267 266 265 265 262 258 256 257 260 264 267 270 273 276 278 280 282 284 287 288 289 289 290 290 290 288 288 289 286 283 283 282 284 288 288 286 283 282 282 282 278 274 272 271 269 267
234 235 236 237 238 238 238 238 237 238 239 240 241 242 243 243 244 245 246 248 247 245 245 247 250 251 252 254 256 257 257 257 258 260 260 260 260 262 263 264 265 265 264 263 262 262 260 256 256 259 262 264 265 268 272 275 277 277 279 283 285 286 287 288 290 290 290 290 289 287 284 283 281 283 290 293 288 285 285 285 285 281 276 271 269 268 268 266
235 235 236 236 237 238 240 239 239 239 239 240 241 242 243 243 244 245 246 248 248 246 246 246 247 248 250 252 254 256 256 256 257 258 258 259 259 260 261 262 262 261 261 260 260 262 261 257 256 258 261 264 267 270 272 273 275 277 279 280 281 283 286 287 289 289 289 289 288 285 284 283 282 286 292 289 285 288 291 289 284 277 272 268 266 266 267 265
235 235 236 237 237 239 239 239 239 240 240 240 241 241 241 242 243 243 244 246 247 246 246 245 245 246 248 250 251 253 255 256 256 256 257 258 258 258 259 260 261 260 259 259 260 261 260 257 257 258 261 265 269 271 272 272 274 276 278 279 282 285 286 288 288 287 287 286 284 283 285 287 287 288 288 285 288 293 292 287 280 274 271 269 267 267 266 264
235 235 236 237 237 238 239 239 239 240 240 240 240 240 241 241 241 242 243 244 246 247 247 246 244 244 246 248 250 251 253 255 256 256 256 257 258 258 259 259 259 260 259 259 260 260 259 260 261 262 263 265 268 269 270 270 272 275 278 281 284 285 287 287 286 285 284 281 280 283 289 292 290 288 286 290 297 296 288 284 280 275 271 269 267 266 265 263
236 236 237 237 238 238 239 239 239 239 240 240 240 240 240 241 241 242 242 243 246 248 249 247 245 245 246 247 250 251 252 253 255 256 256 256 256 257 257 257 257 258 259 260 260 260 262 264 265 266 266 267 267 267 269 271 273 276 279 282 283 283 284 284 284 283 281 279 282 288 293 293 289 287 288 295 300 293 285 282 278 272 268 265 263 262 261 259
237 237 238 238 239 240 240 240 239 239 240 240 240 240 240 241 241 241 243 245 247 248 249 250 249 248 248 247 249 250 252 252 253 254 255 255 255 255 255 256 257 258 259 260 261 262 263 265 266 267 267 267 267 269 272 274 275 277 278 279 280 281 282 282 281 280 280 282 287 291 292 288 285 287 293 296 296 289 281 275 272 270 267 264 261 259 259 258
239 239 239 239 240 241 241 240 239 238 238 239 240 240 240 241 240 241 244 247 247 248 249 252 252 252 251 250 249 250 251 252 252 253 254 255 256 256 255 256 257 257 258 260 261 262 262 263 264 265 267 269 271 272 274 274 275 276 276 277 278 280 280 280 279 280 282 286 288 289 288 283 282 288 295 293 290 286 278 270 269 270 267 265 263 260 257 257
239 239 240 241 242 242 241 239 237 237 238 239 240 240 240 239 240 244 247 248 248 250 252 254 255 255 255 254 254 253 253 253 253 254 255 256 257 257 256 255 255 256 258 260 261 262 262 261 262 265 267 270 271 272 272 273 274 274 275 276 277 278 277 277 280 283 283 283 283 284 283 282 286 292 292 286 284 282 276 269 270 271 271 270 267 264 263 261
238 239 240 241 242 242 239 236 236 237 239 240 241 241 241 241 243 247 249 248 250 252 253 254 255 256 256 256 257 257 255 253 253 254 255 256 257 257 257 257 257 257 258 258 258 260 261 262 263 265 267 268 269 270 271 272 273 274 275 275 275 275 276 278 281 281 280 279 280 280 279 283 290 292 286 280 279 278 271 265 268 271 273 273 271 268 267 265
237 238 240 241 241 241 238 236 236 237 238 239 240 241 241 243 246 248 248 249 250 250 251 253 253 254 255 257 258 259 257 255 253 253 254 256 257 257 257 256 256 255 256 256 257 259 261 262 264 265 265 266 267 268 269 270 271 273 273 273 274 275 276 277 277 277 279 279 279 278 279 284 288 286 282 281 277 271 265 261 262 265 270 274 273 268 263 261
237 238 239 240 241 241 239 238 237 237 238 239 240 240 240 243 246 248 248 249 249 249 250 252 253 255 257 259 260 260 260 258 257 256 256 256 256 256 255 255 254 254 255 257 258 259 261 262 262 263 264 264 265 267 268 269 271 271 272 273 274 273 272 274 275 276 278 278 278 279 281 283 282 278 279 280 272 261 257 259 260 260 265 275 277 272 267 263
234 236 238 239 241 241 240 239 238 237 238 239 241 241 241 242 244 245 247 247 247 247 248 250 252 254 256 258 259 260 260 259 258 257 256 254 252 252 253 254 255 255 256 258 259 259 261 262 262 262 263 264 265 267 268 268 269 269 270 271 271 270 271 274 275 275 276 276 277 277 279 279 277 277 278 275 266 254 250 255 260 262 268 276 279 277 274 270
233 235 238 239 240 241 240 238 238 238 238 239 241 242 242 242 243 244 245 246 246 247 247 248 251 253 255 256 258 258 259 259 258 257 255 253 252 251 251 253 254 256 258 259 259 260 261 263 263 263 264 264 265 265 266 267 267 268 268 268 268 270 272 273 273 274 274 274 274 274 275 275 276 279 279 271 263 255 251 254 259 264 268 271 276 280 278 273
236 236 237 238 239 241 240 238 238 238 239 240 242 243 243 244 244 243 244 246 247 248 248 249 250 252 253 254 256 256 258 259 259 259 256 254 253 252 251 252 253 255 258 259 260 261 262 262 262 262 263 263 263 262 264 265 265 265 264 265 266 268 270 270 270 271 272 272 274 275 275 275 276 278 276 270 265 260 258 260 261 263 265 269 276 282 281 274
231 235 237 237 239 242 243 240 237 237 239 240 243 244 244 244 245 244 245 245 247 248 248 249 249 250 251 252 253 254 256 258 259 260 258 255 253 252 252 253 254 255 257 259 259 259 259 259 260 260 261 261 261 262 263 263 260 259 260 262 263 265 268 269 269 269 269 271 275 277 276 274 273 273 273 271 268 266 267 267 267 266 266 269 274 279 280 276
222 228 233 237 239 243 244 239 234 235 238 239 241 243 243 244 244 245 245 245 246 246 246 247 247 248 249 250 251 252 255 256 257 258 258 257 255 255 254 254 255 255 256 257 257 257 258 259 259 258 257 259 261 261 259 257 257 258 259 261 263 266 270 272 273 273 272 273 275 275 273 270 269 271 274 274 274 274 274 273 272 270 270 271 273 275 277 277
220 222 226 233 236 237 237 236 236 237 238 238 240 241 241 241 242 243 243 242 243 243 243 244 246 247 248 249 250 251 252 253 254 255 257 257 256 256 256 255 255 254 254 253 253 253 254 256 256 254 253 255 257 256 256 257 258 258 258 260 264 268 271 273 276 276 273 271 270 269 269 269 268 271 275 277 279 279 278 277 277 276 274 274 273 272 272 273
221 221 221 223 225 226 228 232 236 238 240 240 240 239 239 239 240 241 241 240 240 241 242 242 243 244 245 246 247 247 249 250 251 253 255 256 256 255 255 255 255 255 254 252 251 249 247 248 249 249 249 250 252 254 254 255 256 258 261 263 266 267 268 270 272 272 269 268 268 268 267 268 269 272 274 276 277 278 279 278 278 277 276 274 273 272 273 273
224 224 219 215 216 221 224 227 229 233 238 241 239 238 237 236 237 237 237 238 239 239 240 241 241 243 243 244 244 245 247 249 251 253 254 256 256 255 256 256 256 257 254 251 249 248 246 245 246 249 249 248 249 251 253 256 261 264 265 264 264 264 263 264 267 268 267 267 267 266 267 269 272 274 274 275 275 276 277 276 275 275 274 274 274 274 276 277
228 227 222 215 214 218 222 226 229 233 237 240 238 237 236 235 235 235 236 237 237 238 239 240 241 243 243 243 244 245 248 250 252 254 254 255 255 254 255 254 254 254 251 246 245 246 247 247 248 250 249 248 249 251 256 262 265 265 262 262 262 262 261 261 263 264 265 265 264 266 270 274 274 274 274 276 277 276 275 274 274 274 273 273 273 274 276 277
229 223 220 219 216 218 221 224 229 232 234 236 235 235 236 236 237 238 237 237 237 237 238 239 239 240 241 241 243 245 248 250 251 252 253 254 255 255 255 254 252 250 248 245 244 245 248 249 250 252 252 251 253 255 257 259 260 259 259 260 261 261 261 262 262 263 265 266 266 268 272 272 272 273 274 275 275 275 275 275 274 274 274 273 272 274 275 277
228 220 219 220 220 223 224 223 224 226 228 232 233 234 236 238 238 239 238 237 237 237 238 239 238 238 240 242 244 245 247 247 248 249 251 252 254 255 255 253 250 248 247 247 247 249 251 251 252 254 255 254 256 258 258 257 256 256 256 257 259 261 262 262 263 266 269 269 268 270 271 270 270 270 271 272 273 273 273 273 274 275 276 276 276 276 276 278
231 225 224 225 224 225 227 226 226 224 224 228 230 233 236 238 238 240 240 238 237 237 238 238 238 240 243 244 245 245 245 245 246 247 249 250 252 253 254 253 251 249 249 249 251 254 256 255 253 254 255 254 254 256 256 256 256 256 256 257 259 262 264 264 265 268 270 269 270 272 273 273 274 272 271 272 273 273 273 274 275 275 276 277 277 276 276 278
236 232 229 228 228 227 227 227 228 226 224 227 229 231 234 235 236 238 238 237 237 239 240 239 239 242 244 244 243 242 243 244 245 247 249 252 252 251 250 251 251 251 252 253 256 258 259 257 254 254 254 252 253 255 256 256 257 258 258 259 261 265 267 265 265 266 268 270 273 276 276 276 277 277 276 276 275 276 276 275 275 276 276 276 276 276 277 279
237 235 231 229 230 230 229 228 228 227 225 224 227 230 232 233 234 235 236 236 238 241 242 241 240 242 243 242 240 240 242 244 246 248 250 252 253 251 248 249 251 252 254 256 257 257 256 256 254 254 253 251 252 256 258 259 260 260 259 260 262 264 265 265 266 268 270 272 275 276 275 276 277 278 279 279 278 276 274 273 273 274 275 276 276 277 278 279
236 236 232 229 229 230 230 229 229 229 228 225 224 227 229 230 232 234 235 236 237 239 241 240 238 240 241 240 238 239 242 245 246 247 248 250 251 251 250 251 252 253 254 255 255 255 255 255 254 254 254 253 253 255 257 258 260 260 260 260 261 263 265 268 271 272 272 273 273 272 273 275 276 276 275 274 274 273 273 274 274 274 275 275 275 275 276 276
234 234 232 230 229 229 230 231 230 230 230 229 227 225 226 228 229 231 233 234 234 235 237 237 234 235 236 236 236 237 239 242 244 245 245 245 246 247 246 247 249 249 249 250 251 254 256 257 257 257 257 257 256 254 253 255 258 260 262 263 263 266 268 270 270 271 271 271 271 271 273 274 274 272 271 270 271 272 274 275 275 275 275 275 274 274 275 275
Height
5829 5830 5832 5834 5836 5838 5840 5842 5844 5845 5847 5849 5850 5852 5854 5855 5856 5858 5859 5860 5861 5863 5864 5865 5866 5867 5868 5868 5869 5870 5871 5872 5872 5873 5874 5874 5875 5875 5876 5876 5877 5877 5878 5878 5879 5879 5880 5880 5881 5881 5881 5882 5882 5882 5882 5882 5882 5882 5882 5882 5883 5883 5883 5883 5883 5883 5883 5883 5883 5883 5883 5882 5882 5881 5881 5881 5882 5882 5882 5881 5879 5879 5879 5879 5879 5879 5879 5878
5826 5828 5829 5831 5833 5835 5837 5839 5842 5844 5845 5847 5849 5850 5852 5853 5855 5856 5858 5859 5860 5861 5862 5864 5865 5865 5866 5867 5868 5869 5870 5871 5871 5872 5873 5873 5874 5874 5875 5875 5876 5876 5876 5877 5877 5878 5878 5879 5879 5879 5880 5880 5880 5881 5880 5880 5880 5880 5881 5881 5881 5881 5882 5882 5882 5882 5881 5881 5881 5881 5881 5881 5880 5880 5880 5880 5880 5881 5881 5880 5878 5877 5877 5877 5877 5877 5877 5877
5823 5825 5827 5829 5831 5833 5835 5837 5839 5841 5843 5845 5847 5848 5850 5851 5853 5855 5856 5857 5859 5860 5861 5862 5863 5864 5865 5866 5866 5867 5868 5869 5870 5871 5872 5872 5873 5873 5873 5874 5874 5875 5875 5876 5876 5877 5877 5877 5878 5878 5878 5879 5879 5879 5879 5879 5879 5879 5880 5879 5879 5880 5880 5879 5880 5880 5880 5879 5879 5879 5880 5880 5879 5878 5878 5878 5878 5879 5879 5878 5877 5875 5875 5875 5875 5875 5875 5875
5821 5823 5825 5827 5828 5830 5833 5835 5837 5839 5841 5843 5844 5846 5848 5849 5851 5853 5854 5855 5857 5858 5859 5860 5861 5862 5863 5864 5865 5866 5867 5868 5868 5869 5870 5870 5871 5872 5872 5873 5873 5874 5874 5875 5875 5875 5876 5876 5876 5876 5877 5877 5877 5877 5877 5877 5877 5878 5878 5878 5878 5878 5878 5877 5878 5878 5879 5878 5877 5877 5878 5877 5877 5877 5877 5876 5876 5876 5877 5877 5876 5874 5874 5874 5874 5874 5873 5873
5818 5820 5822 5824 5826 5828 5830 5832 5834 5836 5838 5840 5842 5844 5845 5847 5849 5850 5852 5853 5855 5856 5857 5859 5860 5861 5862 5862 5863 5864 5865 5866 5866 5867 5868 5869 5870 5870 5871 5871 5872 5872 5873 5873 5874 5874 5874 5874 5874 5875 5875 5875 5876 5875 5875 5876 5876 5876 5876 5876 5876 5877 5876 5875 5875 5876 5876 5876 5876 5875 5875 5875 5875 5875 5875 5875 5874 5873 5874 5874 5874 5873 5872 5872 5872 5872 5872 5872
5815 5817 5819 5821 5824 5826 5828 5830 5831 5833 5835 5837 5839 5841 5843 5844 5846 5848 5849 5851 5852 5854 5855 5857 5858 5859 5860 5861 5862 5862 5863 5864 5865 5865 5866 5867 5868 5868 5869 5870 5870 5871 5871 5872 5872 5872 5872 5872 5873 5873 5873 5874 5874 5873 5873 5874 5874 5875 5875 5874 5874 5875 5874 5873 5873 5874 5874 5874 5874 5873 5873 5873 5873 5873 5873 5873 5872 5871 5871 5871 5871 5871 5871 5871 5870 5870 5870 5870
5812 5814 5816 5818 5821 5823 5825 5827 5829 5831 5833 5835 5837 5838 5840 5842 5844 5845 5847 5848 5850 5852 5853 5854 5856 5857 5858 5859 5860 5861 5862 5863 5863 5863 5864 5865 5866 5867 5867 5868 5869 5869 5870 5870 5870 5870 5870 5871 5870 5870 5871 5872 5872 5871 5871 5872 5872 5873 5873 5872 5871 5873 5873 5871 5871 5871 5871 5871 5871 5871 5871 5871 5871 5871 5871 5871 5870 5869 5868 5868 5868 5869 5869 5869 5869 5869 5868 5868
5809 5811 5813 5816 5818 5820 5822 5824 5827 5829 5831 5833 5834 5836 5838 5839 5841 5843 5844 5846 5847 5849 5851 5852 5853 5854 5856 5857 5858 5859 5860 5861 5861 5862 5862 5863 5864 5865 5865 5866 5867 5867 5868 5868 5868 5868 5868 5868 5868 5868 5869 5869 5870 5870 5870 5870 5870 5871 5871 5870 5869 5870 5871 5870 5869 5869 5869 5869 5869 5869 5868 5869 5869 5869 5869 5869 5867 5866 5865 5866 5866 5866 5867 5867 5867 5866 5866 5866
5806 5808 5810 5812 5815 5817 5819 5822 5824 5826 5828 5830 5832 5834 5835 5837 5838 5840 5842 5843 5845 5847 5848 5850 5851 5852 5854 5855 5856 5856 5857 5859 5859 5860 5861 5861 5862 5863 5863 5864 5865 5865 5865 5866 5866 5866 5866 5866 5866 5866 5867 5867 5868 5868 5868 5867 5868 5868 5868 5868 5867 5867 5868 5868 5867 5866 5866 5866 5866 5866 5866 5866 5867 5867 5867 5866 5864 5864 5863 5863 5864 5864 5864 5864 5864 5864 5864 5864
5803 5805 5807 5809 5812 5814 5816 5818 5820 5823 5825 5827 5829 5831 5832 5834 5836 5837 5839 5841 5842 5844 5846 5847 5848 5850 5851 5852 5854 5854 5855 5856 5857 5858 5859 5859 5860 5861 5861 5862 5862 5863 5863 5863 5863 5864 5864 5864 5864 5864 5865 5865 5865 5865 5866 5865 5865 5866 5865 5865 5865 5864 5865 5865 5864 5864 5864 5864 5863 5863 5863 5864 5864 5864 5865 5863 5862 5862 5862 5861 5861 5861 5861 5861 5862 5861 5861 5861
5799 5802 5804 5807 5809 5811 5813 5815 5817 5819 5822 5824 5826 5827 5829 5831 5833 5834 5836 5838 5839 5841 5843 5844 5846 5847 5848 5850 5851 5851 5853 5854 5854 5856 5857 5857 5858 5858 5859 5859 5860 5860 5861 5861 5861 5861 5861 5862 5862 5862 5862 5863 5863 5863 5863 5863 5863 5863 5863 5863 5862 5862 5862 5862 5862 5861 5861 5861 5860 5859 5860 5861 5861 5861 5861 5860 5859 5860 5859 5859 5859 5859 5859 5859 5859 5859 5859 5858
5796 5798 5801 5803 5805 5808 5810 5812 5814 5816 5818 5820 5822 5824 5826 5828 5830 5831 5833 5834 5836 5838 5839 5841 5842 5844 5845 5847 5848 5849 5850 5851 5852 5853 5854 5855 5855 5856 5856 5856 5857 5857 5858 5858 5858 5858 5859 5859 5860 5860 5860 5860 5861 5861 5860 5860 5860 5860 5860 5860 5859 5859 5859 5859 5859 5859 5858 5858 5858 5856 5857 5858 5858 5858 5858 5857 5857 5857 5857 5857 5857 5856 5856 5857 5857 5856 5856 5856
5792 5794 5797 5799 5802 5804 5806 5809 5810 5812 5814 5816 5818 5820 5822 5824 5826 5828 5829 5831 5833 5834 5836 5837 5839 5841 5842 5843 5844 5846 5847 5848 5849 5850 5851 5852 5852 5853 5853 5854 5854 5855 5855 5855 5855 5855 5856 5856 5857 5857 5857 5857 5858 5858 5857 5857 5857 5857 5856 5857 5856 5855 5855 5856 5855 5855 5854 5854 5855 5853 5853 5855 5855 5854 5854 5854 5854 5854 5854 5855 5854 5854 5854 5854 5854 5854 5853 5853
5788 5790 5793 5795 5798 5800 5803 5805 5807 5809 5811 5812 5814 5816 5818 5820 5822 5824 5826 5827 5829 5831 5832 5834 5836 5837 5839 5840 5841 5843 5844 5845 5846 5846 5847 5848 5849 5849 5850 5851 5851 5852 5852 5852 5852 5853 5853 5853 5854 5854 5854 5854 5854 5854 5854 5854 5854 5854 5853 5853 5852 5852 5852 5853 5853 5852 5852 5851 5851 5850 5849 5852 5852 5851 5851 5851 5852 5852 5852 5852 5852 5851 5851 5851 5851 5851 5850 5850
5784 5786 5789 5791 5794 5796 5799 5801 5803 5805 5807 5808 5810 5812 5814 5816 5818 5820 5821 5823 5825 5827 5828 5830 5832 5834 5835 5837 5838 5840 5841 5842 5842 5843 5844 5845 5846 5846 5847 5848 5848 5848 5849 5849 5849 5850 5850 5850 5851 5851 5851 5851 5851 5851 5851 5852 5852 5851 5849 5848 5848 5849 5849 5851 5851 5850 5849 5848 5848 5846 5846 5848 5849 5848 5848 5848 5848 5849 5849 5849 5849 5848 5848 5848 5848 5848 5847 5847
5779 5782 5785 5787 5790 5792 5794 5797 5799 5801 5803 5805 5806 5808 5810 5812 5814 5816 5817 5819 5821 5823 5825 5826 5828 5830 5832 5833 5835 5837 5837 5838 5838 5839 5840 5841 5842 5843 5844 5844 5845 5845 5845 5846 5846 5846 5847 5847 5847 5847 5848 5847 5847 5847 5848 5849 5849 5847 5845 5845 5845 5846 5846 5847 5848 5848 5847 5846 5845 5844 5843 5845 5845 5844 5845 5845 5846 5846 5846 5846 5845 5845 5845 5845 5844 5844 5844 5844
5775 5778 5780 5783 5786 5788 5790 5792 5795 5797 5799 5801 5803 5805 5806 5808 5810 5811 5813 5815 5817 5819 5820 5822 5825 5826 5828 5830 5832 5832 5833 5834 5834 5835 5836 5838 5839 5839 5840 5841 5841 5841 5842 5842 5843 5843 5844 5844 5844 5844 5844 5844 5845 5844 5844 5845 5844 5843 5842 5842 5843 5843 5843 5843 5843 5844 5844 5843 5842 5841 5841 5841 5840 5840 5842 5842 5842 5842 5842 5842 5842 5842 5841 5841 5841 5841 5841 5841
5771 5773 5776 5779 5781 5783 5785 5788 5790 5792 5794 5796 5799 5801 5802 5804 5806 5807 5809 5811 5813 5815 5816 5819 5821 5822 5823 5826 5827 5828 5829 5830 5831 5831 5833 5834 5835 5835 5836 5837 5837 5838 5838 5839 5840 5840 5840 5841 5841 5841 5842 5842 5841 5841 5841 5841 5840 5839 5839 5839 5840 5840 5840 5840 5840 5839 5839 5839 5838 5838 5838 5838 5837 5837 5838 5838 5838 5838 5838 5839 5839 5838 5837 5837 5838 5838 5838 5838
5766 5769 5771 5774 5776 5779 5781 5783 5785 5787 5790 5792 5794 5796 5798 5799 5801 5803 5804 5806 5809 5810 5812 5815 5816 5817 5819 5821 5823 5824 5825 5826 5827 5828 5828 5829 5830 5831 5832 5833 5834 5834 5835 5835 5836 5836 5837 5837 5838 5838 5839 5839 5837 5837 5838 5838 5837 5837 5836 5835 5836 5837 5837 5837 5836 5835 5834 5835 5835 5834 5834 5835 5834 5834 5834 5834 5834 5835 5835 5835 5835 5834 5833 5833 5834 5834 5834 5834
5761 5764 5766 5768 5771 5774 5776 5778 5780 5782 5785 5787 5790 5792 5793 5795 5796 5798 5800 5802 5804 5806 5807 5810 5811 5813 5815 5816 5818 5820 5821 5823 5823 5823 5823 5825 5826 5827 5828 5829 5830 5830 5831 5831 5832 5833 5833 5834 5835 5836 5836 5835 5833 5833 5835 5835 5834 5834 5833 5832 5833 5833 5833 5833 5831 5830 5830 5830 5831 5831 5830 5831 5831 5831 5830 5830 5830 5832 5831 5830 5831 5831 5830 5829 5829 5830 5831 5830
5756 5758 5761 5763 5766 5768 5771 5773 5775 5777 5780 5783 5785 5786 5788 5790 5791 5793 5795 5797 5799 5801 5802 5805 5806 5808 5810 5812 5814 5815 5816 5818 5819 5819 5819 5821 5822 5822 5823 5825 5826 5827 5827 5827 5828 5829 5830 5831 5833 5833 5832 5830 5830 5830 5831 5832 5831 5831 5830 5829 5829 5829 5829 5829 5828 5826 5826 5824 5825 5826 5826 5826 5828 5827 5826 5826 5827 5829 5828 5826 5826 5827 5826 5825 5825 5825 5826 5826
5750 5752 5755 5757 5760 5763 5765 5768 5770 5772 5775 5778 5780 5781 5782 5784 5786 5788 5790 5791 5793 5796 5798 5799 5801 5804 5806 5807 5809 5810 5811 5813 5814 5815 5816 5816 5817 5817 5819 5821 5822 5822 5823 5823 5824 5825 5826 5828 5829 5828 5827 5827 5827 5827 5827 5827 5828 5827 5827 5826 5826 5826 5826 5825 5825 5824 5822 5820 5820 5821 5820 5821 5822 5822 5822 5822 5823 5824 5824 5823 5822 5822 5822 5821 5821 5821 5822 5821
5745 5748 5749 5752 5755 5757 5760 5762 5765 5768 5771 5773 5775 5775 5776 5778 5780 5782 5783 5785 5788 5790 5792 5794 5796 5799 5801 5802 5803 5805 5807 5808 5809 5810 5812 5812 5812 5812 5814 5816 5817 5818 5818 5819 5820 5821 5823 5824 5824 5824 5823 5823 5824 5824 5823 5823 5823 5823 5823 5822 5822 5823 5822 5821 5821 5820 5818 5817 5815 5816 5815 5815 5816 5818 5818 5818 5818 5820 5820 5818 5817 5817 5817 5817 5817 5817 5817 5817
5740 5743 5744 5747 5749 5751 5755 5757 5759 5763 5766 5768 5769 5769 5770 5772 5774 5776 5777 5778 5781 5785 5788 5789 5791 5793 5795 5797 5799 5800 5801 5803 5805 5806 5807 5808 5808 5808 5810 5811 5812 5813 5814 5815 5816 5817 5818 5820 5820 5819 5819 5820 5820 5820 5820 5820 5819 5819 5818 5818 5818 5818 5817 5817 5817 5815 5815 5813 5812 5811 5809 5809 5812 5812 5814 5816 5815 5815 5815 5813 5812 5812 5812 5812 5812 5813 5812 5812
5734 5737 5739 5741 5743 5746 5748 5751 5756 5758 5760 5763 5764 5763 5764 5766 5768 5770 5771 5770 5773 5780 5783 5784 5786 5788 5790 5791 5792 5795 5796 5798 5800 5801 5802 5804 5803 5804 5805 5806 5807 5809 5810 5810 5811 5811 5814 5814 5814 5814 5815 5816 5816 5816 5816 5816 5816 5815 5815 5814 5814 5813 5812 5812 5811 5810 5809 5808 5808 5808 5803 5803 5806 5807 5810 5813 5812 5810 5809 5808 5808 5808 5807 5807 5807 5807 5808 5808
5727 5730 5733 5735 5738 5740 5742 5747 5752 5752 5754 5758 5757 5757 5758 5761 5762 5764 5765 5763 5765 5773 5778 5780 5781 5782 5785 5785 5787 5789 5789 5792 5795 5796 5797 5798 5798 5800 5800 5801 5803 5805 5806 5805 5805 5806 5808 5810 5810 5811 5811 5811 5812 5812 5813 5812 5812 5811 5811 5811 5810 5809 5808 5807 5807 5806 5804 5803 5803 5803 5799 5797 5800 5802 5806 5808 5805 5804 5804 5804 5804 5803 5801 5801 5802 5802 5803 5803
5721 5724 5726 5729 5732 5734 5737 5743 5746 5746 5750 5752 5750 5751 5753 5755 5756 5758 5759 5755 5758 5767 5771 5774 5776 5777 5779 5780 5782 5783 5783 5787 5790 5790 5792 5793 5793 5795 5796 5797 5798 5800 5801 5800 5800 5801 5803 5805 5806 5807 5806 5805 5807 5808 5809 5809 5807 5807 5807 5807 5806 5805 5805 5804 5803 5802 5800 5799 5798 5796 5794 5793 5794 5799 5803 5802 5800 5799 5800 5799 5798 5797 5795 5796 5797 5797 5798 5799
5714 5717 5719 5723 5726 5728 5732 5736 5739 5742 5745 5744 5743 5744 5746 5747 5748 5751 5751 5748 5752 5761 5764 5766 5770 5772 5774 5774 5776 5777 5778 5782 5784 5785 5787 5788 5788 5790 5791 5792 5793 5794 5795 5794 5795 5797 5798 5799 5800 5802 5802 5802 5802 5803 5804 5804 5803 5802 5802 5802 5802 5801 5800 5799 5798 5797 5796 5795 5793 5790 5791 5789 5790 5794 5796 5795 5797 5797 5795 5794 5792 5791 5791 5791 5792 5793 5794 5794
5707 5709 5712 5716 5718 5721 5725 5729 5734 5737 5736 5736 5736 5736 5738 5739 5741 5743 5742 5741 5749 5755 5756 5759 5764 5766 5768 5769 5771 5772 5774 5776 5777 5779 5782 5783 5784 5785 5787 5788 5788 5788 5789 5789 5791 5793 5792 5793 5795 5796 5798 5798 5798 5798 5799 5799 5798 5798 5798 5797 5797 5796 5795 5794 5792 5791 5790 5789 5788 5788 5789 5788 5786 5789 5789 5790 5793 5793 5790 5789 5787 5787 5787 5787 5788 5789 5789 5790
5699 5703 5705 5707 5710 5715 5718 5722 5729 5730 5728 5728 5728 5728 5730 5731 5734 5734 5731 5737 5748 5750 5748 5751 5757 5761 5764 5765 5766 5767 5769 5771 5773 5774 5775 5777 5779 5780 5782 5783 5783 5783 5784 5785 5787 5788 5788 5789 5790 5790 5792 5793 5793 5793 5793 5794 5794 5794 5793 5793 5792 5790 5790 5788 5787 5786 5784 5784 5786 5786 5787 5785 5781 5783 5786 5787 5789 5788 5786 5784 5783 5783 5783 5783 5784 5784 5785 5786
5692 5695 5697 5700 5705 5709 5712 5717 5723 5723 5721 5720 5719 5720 5722 5723 5725 5723 5725 5738 5746 5743 5741 5744 5750 5755 5757 5760 5761 5762 5764 5766 5768 5768 5769 5771 5773 5775 5777 5777 5778 5779 5779 5780 5782 5783 5784 5784 5784 5785 5786 5787 5787 5787 5788 5789 5789 5789 5788 5787 5786 5784 5784 5783 5782 5781 5779 5780 5783 5783 5783 5780 5776 5779 5782 5783 5783 5783 5781 5780 5779 5779 5779 5779 5780 5780 5781 5782
5684 5687 5689 5694 5698 5701 5705 5710 5715 5714 5711 5711 5711 5712 5715 5714 5711 5713 5725 5738 5737 5733 5736 5738 5742 5747 5748 5752 5755 5757 5759 5760 5762 5763 5764 5766 5767 5769 5772 5772 5773 5773 5773 5775 5777 5777 5779 5779 5779 5779 5779 5781 5782 5783 5783 5783 5783 5783 5782 5782 5780 5779 5778 5777 5776 5776 5777 5778 5779 5778 5776 5774 5773 5777 5780 5778 5778 5778 5777 5776 5775 5775 5776 5776 5776 5777 5777 5778
5677 5680 5682 5686 5690 5694 5698 5702 5704 5703 5702 5704 5702 5702 5704 5699 5699 5712 5726 5730 5726 5728 5733 5734 5735 5738 5740 5744 5748 5751 5754 5755 5757 5758 5759 5761 5762 5764 5766 5766 5768 5767 5768 5771 5771 5771 5772 5773 5774 5775 5775 5777 5777 5776 5776 5777 5777 5776 5776 5776 5776 5774 5772 5771 5772 5773 5773 5774 5773 5772 5770 5767 5770 5776 5777 5775 5774 5774 5774 5774 5773 5773 5773 5773 5774 5774 5774 5775
5670 5672 5674 5678 5682 5685 5690 5692 5695 5696 5697 5696 5692 5693 5692 5687 5697 5714 5719 5720 5721 5724 5727 5727 5728 5731 5733 5736 5740 5744 5747 5749 5750 5752 5753 5755 5756 5758 5759 5761 5762 5762 5764 5765 5764 5764 5764 5766 5769 5770 5771 5771 5770 5770 5771 5771 5770 5770 5771 5771 5770 5769 5768 5768 5769 5768 5767 5768 5768 5767 5765 5764 5768 5772 5772 5772 5772 5771 5772 5772 5771 5771 5770 5771 5771 5772 5772 5773
5663 5665 5667 5670 5673 5677 5681 5683 5686 5688 5687 5685 5682 5679 5678 5683 5699 5710 5709 5712 5716 5716 5720 5721 5721 5724 5726 5729 5732 5735 5738 5741 5744 5745 5746 5748 5750 5752 5754 5755 5756 5756 5757 5758 5758 5759 5758 5760 5764 5764 5764 5765 5764 5764 5765 5765 5764 5764 5765 5764 5765 5766 5766 5765 5764 5763 5762 5762 5761 5761 5761 5762 5765 5767 5768 5769 5769 5768 5768 5768 5768 5768 5768 5768 5768 5769 5769 5770
5655 5656 5658 5661 5666 5672 5673 5674 5678 5678 5676 5675 5669 5665 5670 5684 5697 5700 5701 5707 5709 5710 5715 5715 5714 5718 5720 5722 5725 5727 5730 5733 5736 5738 5740 5742 5743 5745 5747 5749 5750 5750 5752 5753 5753 5754 5754 5754 5757 5757 5757 5759 5758 5758 5759 5760 5759 5758 5758 5760 5762 5762 5761 5760 5759 5759 5758 5756 5755 5756 5757 5759 5761 5762 5764 5766 5765 5765 5765 5764 5764 5764 5765 5765 5765 5766 5766 5767
5646 5648 5649 5654 5662 5664 5664 5666 5669 5667 5665 5663 5656 5657 5669 5683 5691 5692 5695 5699 5700 5704 5708 5707 5708 5711 5713 5715 5717 5719 5721 5724 5727 5730 5732 5734 5736 5739 5741 5742 5743 5744 5746 5747 5747 5748 5748 5747 5749 5750 5751 5752 5752 5752 5753 5753 5752 5752 5754 5757 5757 5755 5755 5754 5753 5753 5753 5751 5751 5752 5753 5755 5756 5758 5761 5762 5761 5761 5761 5760 5760 5761 5762 5762 5762 5763 5763 5764
5639 5640 5641 5648 5655 5655 5655 5659 5659 5657 5655 5651 5646 5653 5667 5676 5684 5687 5687 5689 5692 5695 5699 5700 5702 5704 5706 5708 5710 5712 5713 5714 5718 5722 5724 5726 5729 5733 5736 5736 5737 5738 5740 5741 5740 5741 5742 5741 5742 5744 5744 5745 5746 5746 5746 5747 5748 5749 5751 5752 5750 5748 5748 5748 5747 5747 5748 5746 5745 5747 5749 5750 5752 5754 5757 5756 5756 5757 5756 5756 5757 5758 5758 5758 5759 5759 5760 5761
5632 5631 5633 5642 5648 5647 5648 5651 5650 5648 5644 5638 5639 5650 5662 5670 5676 5678 5678 5682 5685 5685 5689 5694 5697 5698 5699 5701 5703 5705 5705 5706 5709 5712 5716 5720 5722 5726 5728 5729 5730 5732 5733 5733 5733 5735 5735 5734 5735 5736 5737 5737 5738 5739 5740 5743 5745 5745 5745 5744 5743 5742 5742 5742 5742 5742 5742 5741 5741 5742 5744 5746 5749 5750 5751 5750 5751 5752 5752 5753 5754 5754 5754 5754 5755 5755 5756 5756
5622 5621 5626 5636 5639 5640 5643 5642 5639 5635 5631 5630 5635 5647 5658 5662 5666 5668 5671 5676 5675 5675 5682 5688 5689 5689 5692 5695 5697 5698 5698 5699 5701 5702 5706 5712 5715 5718 5720 5721 5723 5726 5726 5725 5727 5728 5727 5727 5728 5729 5730 5731 5731 5734 5738 5739 5739 5738 5737 5737 5737 5737 5736 5737 5737 5737 5737 5737 5738 5738 5738 5740 5743 5744 5744 5745 5746 5747 5749 5750 5750 5750 5750 5750 5750 5751 5751 5751
5613 5612 5619 5628 5630 5633 5636 5630 5625 5623 5622 5624 5631 5643 5650 5652 5655 5660 5664 5666 5666 5669 5676 5679 5680 5682 5685 5688 5689 5691 5692 5692 5693 5694 5696 5702 5707 5710 5712 5714 5716 5718 5718 5717 5719 5721 5721 5721 5723 5724 5725 5726 5727 5730 5732 5731 5731 5731 5731 5731 5731 5732 5733 5732 5732 5733 5733 5734 5734 5733 5731 5733 5736 5737 5738 5740 5741 5743 5744 5744 5745 5745 5746 5746 5745 5745 5745 5745
5604 5604 5611 5620 5621 5625 5625 5618 5616 5616 5614 5619 5629 5636 5641 5643 5647 5651 5654 5656 5658 5662 5667 5670 5671 5674 5677 5679 5681 5684 5685 5685 5686 5687 5690 5695 5700 5702 5705 5707 5708 5709 5710 5710 5712 5715 5716 5716 5717 5718 5720 5721 5721 5723 5724 5724 5724 5724 5724 5726 5727 5729 5729 5728 5728 5728 5728 5728 5728 5727 5725 5726 5730 5732 5733 5734 5735 5736 5737 5737 5738 5739 5739 5740 5739 5739 5739 5739
5597 5598 5604 5610 5612 5616 5614 5608 5609 5609 5609 5619 5626 5626 5630 5636 5640 5643 5645 5648 5651 5654 5658 5661 5664 5666 5669 5672 5674 5676 5677 5678 5679 5681 5685 5689 5692 5695 5698 5699 5700 5701 5702 5703 5705 5708 5709 5709 5710 5711 5713 5714 5715 5715 5716 5716 5716 5717 5720 5723 5723 5723 5723 5723 5722 5722 5721 5722 5721 5720 5719 5720 5724 5726 5728 5729 5730 5730 5730 5730 5730 5731 5731 5731 5731 5731 5731 5732
5591 5594 5597 5599 5603 5605 5602 5599 5602 5604 5608 5616 5617 5616 5623 5629 5631 5634 5638 5641 5644 5648 5651 5654 5657 5660 5662 5665 5667 5669 5671 5672 5673 5676 5679 5682 5685 5688 5690 5691 5693 5693 5695 5697 5699 5701 5701 5702 5704 5705 5706 5708 5708 5708 5709 5710 5711 5713 5716 5716 5716 5716 5717 5717 5716 5715 5715 5716 5715 5713 5712 5716 5720 5722 5722 5723 5723 5724 5724 5723 5723 5723 5724 5723 5723 5723 5723 5724
5583 5587 5589 5590 5592 5592 5591 5594 5598 5601 5605 5608 5608 5612 5618 5620 5624 5629 5633 5635 5638 5641 5644 5647 5651 5654 5656 5658 5660 5662 5665 5667 5668 5669 5672 5674 5677 5680 5682 5684 5686 5687 5689 5692 5693 5694 5694 5695 5698 5698 5699 5702 5703 5703 5705 5706 5707 5707 5707 5708 5709 5710 5710 5710 5710 5709 5708 5708 5708 5707 5709 5713 5716 5716 5716 5717 5717 5717 5717 5717 5717 5717 5717 5717 5717 5717 5717 5716
5574 5578 5581 5583 5583 5582 5585 5590 5592 5594 5598 5601 5603 5607 5610 5614 5620 5624 5625 5628 5632 5635 5637 5640 5644 5647 5647 5649 5652 5655 5658 5660 5661 5662 5665 5667 5670 5673 5676 5678 5679 5681 5683 5685 5686 5687 5685 5687 5691 5692 5693 5697 5698 5698 5700 5699 5698 5699 5701 5702 5702 5703 5703 5703 5702 5702 5702 5701 5702 5704 5706 5707 5710 5710 5710 5711 5710 5710 5710 5711 5711 5711 5710 5711 5712 5711 5710 5710
5564 5569 5574 5577 5577 5576 5579 5584 5584 5587 5593 5595 5597 5601 5604 5609 5614 5615 5617 5622 5626 5629 5631 5632 5635 5638 5639 5643 5646 5648 5651 5653 5653 5655 5659 5662 5663 5666 5668 5671 5673 5674 5675 5677 5679 5679 5678 5680 5685 5685 5687 5692 5692 5690 5691 5692 5691 5693 5694 5696 5696 5696 5696 5695 5694 5696 5698 5695 5696 5700 5700 5701 5704 5705 5704 5705 5704 5703 5704 5704 5704 5704 5704 5704 5705 5705 5704 5703
5554 5562 5568 5571 5569 5568 5573 5578 5579 5582 5587 5588 5590 5594 5597 5601 5605 5607 5611 5616 5619 5622 5623 5623 5627 5632 5635 5638 5640 5641 5643 5645 5647 5650 5653 5655 5657 5660 5661 5664 5666 5667 5668 5669 5671 5673 5672 5675 5678 5678 5680 5685 5684 5682 5683 5684 5684 5686 5688 5689 5691 5690 5689 5688 5689 5692 5691 5686 5690 5695 5694 5694 5698 5699 5699 5700 5698 5697 5698 5698 5698 5698 5698 5698 5698 5697 5697 5697
5545 5553 5559 5562 5562 5564 5568 5572 5573 5575 5578 5580 5582 5586 5589 5593 5598 5601 5606 5609 5611 5613 5615 5616 5622 5628 5630 5632 5632 5633 5636 5639 5641 5644 5647 5649 5651 5653 5655 5657 5659 5661 5662 5663 5664 5666 5666 5668 5671 5670 5672 5677 5676 5674 5676 5677 5677 5679 5681 5683 5683 5682 5681 5681 5683 5686 5683 5680 5686 5689 5687 5688 5692 5691 5692 5693 5692 5692 5692 5692 5692 5692 5691 5691 5690 5690 5690 5691
5536 5543 5549 5552 5556 5560 5562 5563 5564 5566 5569 5571 5574 5578 5583 5587 5592 5596 5599 5601 5604 5608 5609 5612 5619 5623 5623 5624 5624 5625 5630 5635 5637 5639 5642 5642 5643 5646 5649 5650 5652 5654 5655 5656 5657 5658 5659 5661 5663 5663 5664 5667 5669 5668 5669 5670 5670 5672 5675 5677 5676 5672 5671 5673 5676 5680 5678 5677 5683 5682 5680 5683 5685 5684 5685 5685 5684 5685 5684 5684 5685 5685 5684 5683 5683 5683 5684 5684
5528 5533 5539 5542 5547 5552 5554 5555 5557 5558 5560 5562 5566 5572 5576 5581 5588 5591 5592 5594 5599 5602 5603 5608 5614 5617 5615 5616 5617 5622 5628 5630 5630 5632 5634 5635 5637 5640 5642 5643 5645 5647 5648 5649 5649 5650 5651 5653 5656 5656 5656 5659 5662 5662 5662 5664 5663 5664 5668 5670 5666 5663 5667 5670 5672 5674 5672 5673 5675 5673 5673 5678 5679 5678 5678 5677 5676 5676 5676 5676 5678 5678 5677 5676 5676 5676 5677 5677
5520 5523 5528 5532 5537 5543 5546 5548 5549 5549 5552 5558 5563 5566 5570 5576 5581 5582 5582 5587 5592 5595 5598 5603 5607 5606 5605 5608 5613 5619 5623 5622 5621 5625 5627 5628 5630 5632 5633 5635 5637 5638 5640 5641 5642 5642 5644 5646 5648 5650 5650 5652 5654 5655 5657 5657 5655 5657 5662 5663 5661 5661 5665 5666 5665 5666 5666 5666 5667 5665 5668 5673 5672 5670 5671 5670 5670 5670 5669 5670 5671 5671 5670 5669 5668 5669 5669 5670